Temp
-2 -3 -2 -2 -2 -1 -1 0 2 3 5 9 11 12 13 14 14 15 15 15 15 14
-3 -3 -3 -3 -3 -2 -2 -1 1 2 4 6 8 11 12 12 13 13 14 15 13 11
-4 -4 -4 -4 -4 -4 -3 -2 -1 0 1 2 4 5 8 7 7 8 6 8 9 10
-4 -5 -5 -5 -5 -4 -4 -4 -3 -2 -1 -0 1 2 2 2 2 3 2 1 2 1
-5 -6 -6 -6 -6 -5 -4 -4 -4 -3 -3 -2 -1 -1 -1 -1 -1 -1 -0 -0 -1 0
-6 -6 -7 -7 -6 -6 -5 -5 -4 -4 -4 -4 -3 -2 -2 -2 -2 -3 -3 -2 -2 -2
-6 -6 -7 -7 -7 -7 -6 -6 -5 -5 -5 -4 -4 -4 -4 -3 -3 -4 -4 -4 -4 -3
-7 -7 -7 -8 -8 -8 -7 -7 -6 -6 -6 -5 -5 -5 -5 -5 -5 -5 -5 -5 -5 -5
-7 -8 -8 -8 -8 -8 -8 -8 -7 -6 -7 -7 -6 -5 -6 -6 -6 -6 -6 -6 -6 -6
-7 -8 -8 -8 -8 -9 -9 -9 -8 -8 -7 -7 -7 -7 -6 -8 -8 -8 -7 -8 -7 -7
-7 -8 -8 -9 -9 -9 -9 -9 -9 -9 -8 -7 -7 -8 -8 -8 -9 -9 -9 -8 -8 -8
-7 -8 -8 -9 -9 -9 -9 -9 -9 -10 -9 -9 -8 -8 -9 -9 -10 -11 -11 -10 -9 -9
-7 -8 -8 -9 -9 -9 -10 -10 -10 -10 -10 -9 -9 -9 -9 -11 -11 -12 -12 -12 -12 -10
-7 -7 -8 -8 -9 -9 -10 -10 -10 -10 -11 -10 -10 -10 -10 -11 -12 -13 -13 -13 -13 -12
Height
770 763 756 748 739 731 723 714 707 699 690 681 681 682 684 685 685 687 694 702 710 713
771 765 758 750 741 732 723 714 709 699 687 681 680 679 681 679 679 678 680 684 696 710
775 767 759 754 746 738 728 718 709 701 693 691 683 679 678 680 678 678 683 691 697 705
781 773 768 760 751 741 732 722 714 712 710 703 695 686 683 686 686 685 694 704 709 716
788 781 773 763 758 747 738 733 727 726 724 720 710 703 697 695 695 694 695 707 719 715
794 786 779 771 762 752 747 742 738 739 735 731 722 725 714 707 707 706 709 714 717 723
797 794 788 779 771 766 763 759 752 749 742 736 724 731 728 720 717 717 720 722 728 731
807 800 795 790 784 781 776 771 764 755 746 739 739 739 739 737 737 734 736 736 739 731
812 809 803 800 795 789 785 782 776 771 769 768 762 755 760 751 752 747 746 745 749 744
818 815 810 807 803 799 794 793 786 782 779 775 772 771 767 768 768 765 760 760 754 752
823 820 818 814 811 809 806 801 795 793 789 786 785 782 779 780 778 774 772 770 769 770
828 825 823 818 816 814 810 808 808 806 801 794 795 791 789 788 787 786 781 779 780 779
835 830 829 825 822 820 816 814 811 808 807 809 806 804 800 796 795 793 790 788 786 787
838 836 834 833 830 828 826 823 820 818 817 815 816 816 814 811 804 802 797 794 791 792
Wind_Speed
29 28 24 25 27 24 23 26 31 28 23 16 18 24 31 35 31 29 23 26 15 26
33 30 30 31 30 29 30 31 30 27 21 8 5 13 19 17 16 15 16 17 17 3
36 35 35 32 34 34 35 37 35 36 30 19 14 19 24 24 23 26 26 21 13 24
35 37 31 32 36 38 41 44 46 42 36 29 23 28 33 35 36 42 37 34 30 24
33 35 35 37 37 39 43 47 47 45 39 33 32 31 35 37 37 40 45 40 32 35
31 34 35 36 43 45 46 46 51 47 42 38 38 29 35 41 41 45 45 43 42 37
33 30 32 37 41 42 42 39 41 39 44 45 51 41 36 40 39 40 42 42 42 39
27 30 31 35 34 33 35 38 37 42 44 44 44 47 38 39 37 37 37 40 39 42
25 26 29 28 32 33 33 35 35 38 40 36 39 41 38 38 37 39 38 37 36 38
24 26 27 27 30 32 32 31 37 36 38 41 40 36 38 36 37 35 38 37 36 37
23 24 25 27 28 27 29 31 34 37 37 40 42 37 34 31 35 36 37 36 36 33
24 24 24 28 27 27 27 30 32 31 38 39 40 38 34 30 32 32 36 36 36 34
26 27 27 27 28 28 31 29 30 36 37 35 37 36 34 34 29 30 27 33 33 31
20 25 26 26 26 27 28 30 30 28 32 37 34 32 31 29 32 28 28 31 33 31
Wind_Direction
355 352 349 351 348 343 338 335 334 331 327 279 246 227 227 235 230 226 221 240 236 281
5 1 1 3 5 359 359 0 355 1 8 10 179 206 211 188 176 179 210 241 231 70
10 10 13 10 13 13 13 17 17 18 22 25 78 104 130 113 112 109 88 109 124 218
16 15 15 20 22 23 27 27 32 26 23 27 45 75 86 85 84 88 81 74 89 74
21 19 18 24 21 28 34 35 34 32 29 29 42 60 73 76 71 76 76 67 62 65
24 23 22 25 32 32 35 38 46 37 33 33 39 42 65 74 73 71 67 68 61 52
30 25 27 32 38 33 38 35 39 42 43 36 40 34 43 61 66 69 68 66 65 58
33 36 33 36 36 35 33 40 38 41 41 41 43 40 39 47 54 60 64 62 57 61
41 39 41 35 38 38 38 36 41 44 45 44 45 45 45 48 48 51 53 54 51 54
43 42 42 41 41 40 38 38 42 43 43 43 42 44 47 49 50 51 50 49 47 47
48 47 44 46 43 43 45 43 41 41 44 45 40 40 43 45 48 52 53 50 49 47
54 51 46 46 42 42 45 46 48 48 45 47 41 38 39 44 47 47 50 53 46 46
61 62 57 55 51 50 51 50 49 49 51 46 47 39 38 42 45 44 43 46 46 42
57 59 61 62 60 59 57 57 56 54 50 53 44 45 42 40 46 46 45 41 38 34